| time (UTC) | temp C | wind direction | speed KPH | gust KPH | rain 1hr cm | rain 24hr cm | rain mn cm | humidity % | barometer mb |
| 20260506110003 | 13 | 325 | 1.6 | 3.2 | 0.00 | 0.00 | 0.00 | 87 | 1015.1 |
| 20260506100502 | 12 | 303 | 1.6 | 3.2 | 0.00 | 0.00 | 0.00 | 87 | 1015.1 |
| 20260506100003 | 12 | 304 | 1.6 | 3.2 | 0.00 | 0.00 | 0.00 | 87 | 1015.1 |
| 20260506090502 | 13 | 327 | 0.0 | 3.2 | 0.00 | 0.00 | 0.00 | 87 | 1015.0 |
| 20260506080503 | 13 | 315 | 3.2 | 3.2 | 0.00 | 0.00 | 0.00 | 86 | 1014.8 |
| 20260506070503 | 15 | 320 | 1.6 | 3.2 | 0.00 | 0.00 | 0.00 | 83 | 1014.4 |
| 20260506060503 | 15 | 312 | 1.6 | 3.2 | 0.00 | 0.00 | 0.00 | 82 | 1014.1 |
| 20260506050502 | 15 | 347 | 3.2 | 4.8 | 0.00 | 0.00 | 0.00 | 80 | 1013.9 |
| 20260506040013 | 16 | 322 | 3.2 | 4.8 | 0.00 | 0.00 | 0.00 | 82 | 1013.2 |
| 20260506030503 | 16 | 354 | 3.2 | 4.8 | 0.00 | 0.00 | 0.00 | 76 | 1012.5 |
| 20260506030003 | 16 | 342 | 3.2 | 4.8 | 0.00 | 0.00 | 0.00 | 76 | 1012.5 |
| 20260506020503 | 16 | 336 | 3.2 | 4.8 | 0.00 | 0.00 | 0.00 | 73 | 1012.4 |
| 20260506020003 | 17 | 9 | 3.2 | 8.0 | 0.00 | 0.00 | 0.00 | 73 | 1012.3 |
| 20260506010003 | 17 | 15 | 1.6 | 9.7 | 0.00 | 0.00 | 0.00 | 72 | 1011.9 |
| 20260506000503 | 18 | 313 | 1.6 | 4.8 | 0.00 | 0.00 | 0.00 | 68 | 1011.6 |
| 20260506000003 | 18 | 345 | 3.2 | 9.7 | 0.00 | 0.00 | 0.00 | 68 | 1011.5 |
| 20260505230503 | 17 | 259 | 4.8 | 9.7 | 0.00 | 0.00 | 0.00 | 73 | 1011.8 |
| 20260505230004 | 17 | 262 | 3.2 | 11.3 | 0.00 | 0.00 | 0.00 | 73 | 1011.8 |
| 20260505220003 | 18 | 250 | 4.8 | 12.9 | 0.00 | 0.00 | 0.00 | 72 | 1012.2 |
| 20260505200503 | 18 | 257 | 3.2 | 9.7 | 0.00 | 0.00 | 0.00 | 69 | 1012.4 |
| 20260505200003 | 18 | 273 | 3.2 | 11.3 | 0.00 | 0.00 | 0.00 | 69 | 1012.5 |
| 20260505190004 | 17 | 270 | 4.8 | 12.9 | 0.00 | 0.00 | 0.00 | 72 | 1012.6 |
| 20260505180504 | 17 | 274 | 4.8 | 11.3 | 0.00 | 0.00 | 0.00 | 71 | 1012.3 |
| 20260505180003 | 17 | 209 | 4.8 | 12.9 | 0.00 | 0.00 | 0.00 | 71 | 1012.3 |
| 20260505170503 | 16 | 259 | 3.2 | 4.8 | 0.00 | 0.00 | 0.00 | 72 | 1012.3 |
| 20260505170004 | 15 | 346 | 1.6 | 8.0 | 0.00 | 0.00 | 0.00 | 72 | 1012.3 |
| 20260505160502 | 14 | 284 | 3.2 | 4.8 | 0.00 | 0.00 | 0.00 | 76 | 1011.9 |
| 20260505150503 | 13 | 327 | 3.2 | 4.8 | 0.00 | 0.00 | 0.00 | 76 | 1011.8 |
| 20260505140503 | 13 | 326 | 1.6 | 8.0 | 0.00 | 0.00 | 0.00 | 76 | 1011.4 |
| 20260505120503 | 13 | 332 | 3.2 | 8.0 | 0.00 | 0.00 | 0.00 | 73 | 1011.2 |
| 20260505120004 | 13 | 332 | 3.2 | 9.7 | 0.00 | 0.00 | 0.00 | 73 | 1011.2 |